Flag for Netherlands Weather past 2 weeks in Rotterdam, Netherlands

45 °F

Scattered clouds.

Feels Like: 37 °F
Forecast: 49 / 53 °F
Wind: 16 mph from West

Location: Rotterdam Zestienhoven Airport

Current Time: Nov 28, 2015 at 12:43:23 PM

Latest Report: Nov 28, 2015 at 11:55 AM

Visibility: N/A

Pressure: 29.89 "Hg

Humidity: 71%

Dew point: 36 °F

Location of RotterdamLocation

Historic Weather in Rotterdam — Graph


Rotterdam temperature yesterday

Maximum temperature yesterday: 45 °F (at 12:25 PM)
Minimum temperature yesterday: 39 °F (at 12:25 AM)
Average temperature yesterday: 42 °F

Past Weeks' High & Low Weather Summary

High59 °F (Nov 15, 9:55 AM)100% (Nov 14, 6:55 PM)30.24 "Hg (Nov 14, 6:55 PM)
Low28 °F (Nov 23, 2:25 AM)59% (Nov 13, 12:25 PM)29.27 "Hg (Nov 21, 9:25 AM)
Average47 °F84%29.84 "Hg
* Reported Nov 13 11:25 AM — Nov 28 11:25 AM, Rotterdam, Weather by CustomWeather, © 2015

Note: Actual official high and low records may vary slightly from our data, if they occured in-between our weather recording intervals... More about our weather records


Rotterdam weather history for previous 24 hours

Time TempWeatherWind HumidityBarometerVisibility
11:25 AM
Sat, Nov 28
45 °FScattered clouds.14 mph71%29.89 "HgN/A
10:55 AM45 °FPassing clouds.13 mph71%29.89 "HgN/A
10:25 AM45 °FScattered clouds.12 mph71%29.89 "HgN/A
9:55 AM45 °FPassing clouds.13 mph71%29.89 "HgN/A
9:25 AM43 °FClear.12 mph76%29.89 "HgN/A
8:55 AM43 °FPassing clouds.14 mph76%29.86 "HgN/A
8:25 AM41 °FScattered clouds.14 mph81%29.86 "HgN/A
7:55 AM43 °FPassing clouds.16 mph76%29.83 "HgN/A
7:25 AM43 °FPassing clouds.16 mph81%29.83 "HgN/A
6:55 AM43 °FPassing clouds.18 mph81%29.80 "HgN/A
6:25 AM43 °FPassing clouds.17 mph76%29.77 "HgN/A
5:55 AM45 °FPassing clouds.21 mph76%29.77 "HgN/A
5:25 AM45 °FLight rain. Passing clouds.16 mph87%29.77 "HgN/A
4:55 AM45 °FLight rain. Partly cloudy.18 mph81%29.74 "HgN/A
4:25 AM45 °FPartly cloudy.20 mph87%29.71 "HgN/A
3:55 AM45 °FLight rain. Partly cloudy.21 mph93%29.68 "HgN/A
3:25 AM45 °FPartly cloudy.21 mph93%29.65 "Hg3 mi
2:55 AM46 °FLight rain. Passing clouds.16 mph93%29.65 "Hg3 mi
2:25 AM45 °FRain. Passing clouds.10 mph93%29.62 "Hg3 mi
1:55 AM43 °FRain showers. Partly cloudy.17 mph100%29.62 "Hg3 mi
12:55 AM41 °FLight rain. Low clouds.21 mph100%29.62 "Hg2 mi
12:25 AM41 °FDrizzle. Low clouds.21 mph100%29.62 "Hg2 mi
11:55 PM
Fri, Nov 27
41 °FLow clouds.21 mph93%29.65 "Hg6 mi
11:25 PM41 °FLow clouds.21 mph100%29.68 "Hg4 mi
10:55 PM41 °FLight rain. Mostly cloudy.21 mph100%29.68 "Hg2 mi
10:25 PM43 °FMostly cloudy.21 mph93%29.68 "Hg6 mi
9:55 PM43 °FLight rain. Mostly cloudy.17 mph93%29.71 "Hg2 mi
9:25 PM43 °FPassing clouds.18 mph93%29.71 "Hg4 mi
8:55 PM43 °FLight rain. Passing clouds.21 mph93%29.74 "Hg4 mi
8:25 PM43 °FMostly cloudy.17 mph93%29.74 "Hg5 mi
7:55 PM43 °FOvercast.16 mph93%29.77 "Hg5 mi
7:25 PM43 °FDrizzle. Mostly cloudy.17 mph93%29.77 "Hg2 mi
6:55 PM45 °FPartly cloudy.15 mph87%29.77 "HgN/A
6:25 PM45 °FPartly cloudy.16 mph87%29.80 "Hg6 mi
5:55 PM45 °FOvercast.16 mph93%29.80 "Hg5 mi
5:25 PM45 °FOvercast.15 mph93%29.83 "Hg4 mi
4:55 PM45 °FFog.17 mph93%29.83 "Hg2 mi
4:25 PM45 °FLight rain. Mostly cloudy.16 mph93%29.83 "Hg2 mi
3:55 PM45 °FLight rain. Mostly cloudy.14 mph93%29.83 "Hg1 mi
3:25 PM43 °FDrizzle. Mostly cloudy.16 mph100%29.86 "Hg1 mi
2:55 PM43 °FDrizzle. Mostly cloudy.14 mph100%29.86 "Hg1 mi
2:25 PM43 °FDrizzle. Mostly cloudy.14 mph100%29.86 "Hg2 mi
1:55 PM43 °FLight rain. Mostly cloudy.14 mph100%29.89 "Hg1 mi
1:25 PM45 °FDrizzle. Mostly cloudy.14 mph93%29.89 "Hg1 mi
12:55 PM45 °FLow clouds.13 mph87%29.92 "Hg5 mi
12:25 PM45 °FMostly cloudy.14 mph87%29.92 "Hg5 mi
Weather by CustomWeather, © 2015

See weather overviewHow to use our weather pages